ECMWFFLT1_925_spd_069.txt.gz
Wind_Speed
26 23 23 24 26 28 28 27 26 25 25 25 24 25 25 26 26 26 24 24 26 26 25 25 23 22 22 21 21 21 21 22 21 21 23 22 21 20 17 11 5 4 12 13 9 8 4 2 4 6 7 9 9 10 10 11 11 12 11 8 8 8 9
18 18 20 21 22 24 25 25 25 24 25 25 24 24 25 26 26 25 24 24 24 25 25 23 22 22 22 22 21 21 22 23 22 21 22 24 23 21 19 13 6 8 13 10 10 10 5 3 4 4 6 8 8 10 11 11 11 12 11 9 9 9 9
15 15 16 18 19 20 22 23 24 24 25 25 25 25 25 26 26 25 24 24 24 24 24 22 22 22 22 22 20 20 22 23 23 22 22 23 24 22 20 16 11 12 12 7 10 11 6 4 3 4 8 8 7 10 12 11 11 12 12 11 10 10 10
15 14 13 15 17 18 20 21 22 24 25 26 25 25 26 26 26 26 25 23 23 24 24 23 23 22 21 21 20 19 22 23 23 23 22 22 23 22 21 18 16 16 14 12 15 17 10 6 5 5 8 9 8 10 12 11 11 12 13 12 11 11 10
15 15 14 14 16 18 19 19 19 20 22 23 25 26 27 28 27 27 26 24 23 24 24 24 23 22 21 21 20 19 20 22 22 22 22 22 22 22 22 20 18 18 18 18 20 21 17 13 11 8 8 10 8 8 11 11 10 11 13 12 12 12 10
15 15 15 16 18 20 21 22 21 20 20 21 24 27 28 28 28 27 26 25 24 24 25 24 24 23 22 21 20 19 20 21 22 22 22 23 22 22 23 21 18 17 19 19 19 21 18 16 15 11 9 11 7 6 9 12 11 11 13 14 13 13 12
17 17 18 19 22 23 24 25 24 23 24 24 25 28 28 28 28 26 25 25 25 24 25 25 24 23 23 22 19 19 21 21 21 21 21 22 22 22 23 22 19 17 19 18 17 19 19 17 18 16 13 8 6 6 7 10 12 11 13 16 16 15 14
18 20 20 21 23 25 26 26 24 25 27 27 27 28 28 28 27 25 24 24 24 24 25 26 24 23 23 22 20 19 21 21 21 20 21 21 21 22 23 23 20 18 19 18 16 17 20 20 19 22 20 10 3 4 4 7 11 13 15 16 17 17 16
20 20 20 20 22 24 25 26 25 25 26 27 27 27 27 27 26 24 22 23 24 25 26 26 25 23 22 22 21 20 20 21 21 20 19 19 19 20 22 22 20 19 19 18 16 15 18 20 19 22 25 19 10 4 3 4 7 12 16 17 18 19 18
21 20 18 18 20 24 25 24 24 23 23 25 26 26 27 27 25 22 21 22 24 25 25 25 24 23 22 22 22 21 20 21 21 19 19 18 18 19 20 20 19 18 17 18 17 16 17 20 19 20 24 26 20 10 4 4 6 10 15 17 18 19 19
17 17 17 17 20 24 24 23 23 22 23 24 24 25 28 27 23 22 21 21 23 24 24 24 22 22 22 21 21 21 21 21 21 20 19 18 17 19 19 18 18 17 16 18 18 17 18 20 19 20 24 27 25 18 11 6 6 11 16 18 19 18 18
19 17 17 18 19 21 23 23 23 22 23 23 23 24 26 26 23 23 23 21 22 24 24 23 22 21 21 21 21 21 20 21 21 20 19 17 17 18 17 17 17 17 17 17 16 16 18 19 20 21 24 26 25 22 19 11 5 10 17 19 21 20 17
19 17 16 17 18 20 22 23 23 22 22 22 23 24 25 25 24 24 24 23 22 24 24 22 22 22 21 20 21 20 20 20 20 19 18 17 16 16 16 16 17 18 17 16 15 15 16 18 20 21 24 27 25 21 19 14 6 8 16 18 19 20 18
18 18 19 19 20 22 22 23 23 21 20 22 24 24 24 24 25 26 25 23 23 24 24 22 22 22 21 20 20 19 19 18 18 17 16 16 16 16 16 16 16 18 18 16 15 15 16 16 18 21 24 26 26 22 19 17 10 6 12 16 16 19 19
21 20 20 21 23 23 22 21 21 19 20 23 24 24 24 24 25 26 25 23 23 25 24 22 21 22 21 20 20 19 18 18 17 17 17 17 17 16 16 16 16 17 17 16 16 15 16 16 16 20 24 26 26 24 21 19 13 8 10 14 15 17 19
23 22 22 24 25 24 22 21 20 19 21 23 24 24 24 25 24 24 24 25 25 25 23 21 21 21 21 21 20 19 18 18 17 17 17 18 17 16 16 15 15 15 16 16 15 15 17 17 15 18 23 26 25 23 22 20 15 11 11 14 16 18 20
23 25 25 26 26 24 21 21 21 21 22 22 22 24 25 24 24 23 24 25 25 24 22 21 21 21 21 21 19 18 17 17 17 16 17 17 17 17 16 16 15 15 15 16 16 16 16 16 17 18 20 21 21 20 20 19 17 16 16 16 18 20 21
25 28 28 28 28 25 21 22 22 22 22 21 23 26 26 24 24 24 25 26 24 23 22 22 21 21 21 20 18 17 17 17 17 16 16 17 17 17 16 15 15 16 16 16 16 17 16 16 17 17 16 18 21 20 18 18 20 21 20 20 19 19 20
24 26 26 27 29 27 23 23 22 21 21 22 24 27 27 26 24 25 27 26 24 23 22 22 21 20 20 19 17 16 16 16 17 16 15 15 16 16 15 14 14 16 17 17 17 17 16 16 16 16 15 17 21 22 18 16 19 21 22 22 20 19 20
22 24 25 26 28 26 22 22 22 21 22 23 24 26 28 28 26 26 28 27 24 23 23 22 21 20 19 18 17 16 15 15 16 15 14 14 14 14 13 12 13 14 16 16 16 16 16 16 16 17 16 16 20 23 20 17 17 17 18 20 19 19 20
20 23 24 24 25 24 21 21 22 23 25 25 25 28 30 29 26 27 28 26 25 24 22 21 19 18 18 18 16 15 15 16 16 14 13 13 14 13 11 11 11 11 13 13 13 14 16 17 16 17 16 15 18 23 23 20 17 14 16 19 19 19 19
18 19 19 19 22 24 24 24 24 25 26 27 27 29 30 29 28 28 27 25 24 23 21 19 17 16 16 16 15 14 14 15 15 14 14 13 13 13 11 10 10 10 11 11 11 12 13 13 14 16 15 12 15 20 21 18 14 12 15 19 19 17 17
14 15 17 18 21 25 27 28 27 27 28 28 28 28 29 30 30 29 26 25 24 22 20 19 17 15 14 14 14 14 14 15 14 14 14 13 11 11 11 10 9 9 9 9 10 11 11 10 12 15 13 9 12 19 20 16 13 13 16 20 20 18 17
13 14 16 15 19 25 28 28 28 28 29 29 28 29 30 31 31 29 26 25 23 21 20 19 17 16 14 13 14 14 14 14 14 14 13 13 12 11 10 9 8 7 8 8 9 9 9 10 10 11 12 10 11 17 19 18 18 18 19 20 21 20 21
13 15 15 14 18 25 28 28 28 28 27 27 30 32 31 31 30 28 26 24 22 21 20 19 18 17 15 14 14 13 14 14 15 15 15 14 13 11 9 8 7 6 6 6 7 8 9 9 9 9 12 12 11 14 16 17 18 19 20 20 19 19 20
11 12 12 12 18 26 28 28 28 28 27 27 29 32 33 31 29 27 25 24 22 21 20 19 18 17 16 15 14 13 15 16 16 16 15 14 13 12 10 9 8 7 7 6 6 7 10 12 11 10 11 11 10 10 9 8 8 9 13 15 16 15 14
8 10 11 15 21 26 28 28 28 29 30 28 28 32 34 31 29 27 26 25 23 22 20 18 17 16 15 15 14 14 15 16 17 16 14 13 12 12 11 10 9 9 9 10 10 12 14 16 16 16 16 16 15 14 12 11 9 7 6 6 7 8 7
6 11 14 17 23 26 26 27 28 30 30 28 27 30 32 30 28 27 25 24 23 21 19 18 16 16 15 15 15 15 15 16 17 16 14 12 12 11 11 9 9 9 9 10 12 13 15 17 17 16 16 15 14 13 12 12 11 10 9 8 7 8 7
12 16 16 16 19 25 26 25 26 28 28 27 26 27 29 28 26 24 22 22 22 21 18 17 16 15 15 16 16 16 16 17 18 17 15 14 14 13 12 11 10 10 10 11 12 12 12 13 15 14 14 14 13 11 11 12 12 11 9 8 8 7 5
17 19 21 18 17 23 28 26 24 26 28 27 25 25 26 26 24 22 20 20 20 20 18 16 15 14 14 15 16 17 18 18 19 19 18 17 17 16 15 14 13 13 14 14 14 13 12 12 13 14 15 15 14 13 13 13 12 11 10 9 8 7 6
21 21 23 21 18 21 27 26 24 25 27 27 26 25 26 27 24 22 21 19 19 19 18 17 16 16 15 15 17 19 20 21 22 22 21 20 18 17 17 15 14 14 15 15 14 14 13 12 13 14 14 14 13 13 12 10 8 8 8 7 7 7 7
25 24 23 21 18 19 23 24 24 25 25 26 27 26 25 27 26 23 21 21 20 19 19 19 18 18 19 18 19 20 22 23 24 23 22 21 19 17 16 15 14 13 14 14 13 12 11 10 11 11 10 10 11 11 10 8 7 7 7 7 8 8 8
25 24 23 21 19 19 21 23 25 25 25 26 27 28 27 28 28 25 23 23 22 20 20 19 19 20 21 21 21 22 23 24 25 24 22 20 19 17 15 14 13 13 12 11 11 10 9 8 8 8 7 7 9 11 10 9 9 9 9 10 11 11 10
25 23 22 22 22 21 20 22 25 26 26 25 26 27 29 30 29 27 25 23 23 21 20 19 19 19 20 21 22 22 23 24 24 23 21 19 18 17 15 14 13 12 10 9 9 8 8 7 6 6 6 7 8 10 9 9 10 11 11 12 12 11 11
25 23 22 23 24 22 20 20 23 26 26 25 24 25 28 30 30 29 26 24 23 21 19 18 18 18 19 19 19 20 21 22 22 21 21 19 18 17 16 14 13 11 9 9 9 8 8 8 7 7 8 9 9 9 8 9 9 10 10 10 10 10 10
22 23 23 23 23 22 19 18 21 25 26 24 23 23 24 27 29 29 27 26 24 22 20 19 18 17 17 17 16 16 18 19 18 18 19 19 18 18 17 15 14 12 10 10 10 10 10 9 10 11 11 10 10 9 8 9 9 9 10 10 10 11 12
21 20 21 23 23 22 19 17 18 23 26 25 23 22 22 24 26 26 26 25 24 22 21 19 18 17 16 15 15 15 16 17 16 16 18 20 20 19 19 18 17 15 14 14 14 14 14 13 13 13 13 11 11 10 10 10 10 10 11 12 12 13 13

ECMWFFLT1_925_spd_072.txt.gz
Wind_Speed
10 9 8 10 15 19 22 23 24 25 26 27 27 26 27 27 27 26 26 26 27 28 27 25 24 22 23 23 23 23 23 24 24 23 23 23 24 21 16 12 5 5 12 12 10 8 5 3 5 6 7 7 8 8 7 8 9 9 7 4 3 5 6
8 7 6 7 11 16 21 23 24 26 26 27 26 25 27 27 26 25 25 26 26 27 27 27 26 24 24 24 24 24 25 26 25 23 24 26 26 24 21 15 7 9 12 9 10 11 6 5 5 5 7 7 7 8 9 8 8 8 7 5 4 5 6
8 7 6 7 10 15 19 22 24 25 24 24 24 24 25 25 24 24 25 26 26 27 27 28 27 26 25 25 25 25 25 26 26 25 24 24 26 25 23 19 13 14 12 7 10 11 6 4 4 6 10 9 7 8 9 9 8 9 8 7 6 6 6
9 10 9 8 10 13 17 20 21 21 22 23 25 24 24 23 23 24 25 26 27 26 26 27 28 28 26 25 25 26 25 26 26 25 24 22 23 23 23 22 19 17 14 10 14 16 10 6 5 7 11 11 8 8 9 10 9 9 9 9 8 7 7
12 13 12 12 12 13 16 18 19 19 21 23 24 25 25 24 24 25 25 27 28 27 25 26 27 28 27 26 27 26 25 26 26 25 24 22 21 22 22 22 21 19 16 12 14 18 16 13 11 8 10 11 8 7 10 10 8 8 9 10 9 8 8
13 14 13 13 14 14 15 16 16 17 21 22 23 26 26 25 25 25 26 27 26 25 24 24 26 27 27 27 28 28 25 26 26 25 24 23 21 20 20 22 21 19 16 13 12 15 17 15 13 10 9 11 8 6 8 10 10 8 9 10 10 9 9
15 16 16 16 16 16 17 17 17 17 21 24 24 25 27 27 26 26 26 25 22 21 22 22 24 27 27 27 28 28 25 24 24 24 24 23 21 19 19 21 21 20 17 14 13 14 16 16 15 14 12 8 6 7 7 9 11 9 10 12 12 10 10
17 17 17 18 19 21 21 20 20 18 20 24 24 23 25 27 27 25 25 24 22 22 23 23 25 27 27 26 26 25 24 22 22 24 23 22 21 20 19 19 19 19 18 15 15 14 16 18 17 18 17 9 4 4 4 7 10 11 11 12 13 13 12
17 18 20 22 23 25 24 20 18 16 16 20 24 24 24 24 22 23 24 24 23 24 25 24 24 26 27 26 25 24 24 22 22 23 22 21 21 19 19 18 18 19 18 16 15 14 15 17 17 18 20 16 9 4 2 4 6 10 13 13 13 14 14
17 20 23 24 24 25 24 18 15 15 14 17 23 25 25 23 21 22 24 22 22 24 25 24 24 24 24 24 24 24 24 23 22 22 21 20 20 18 18 18 18 19 18 17 16 14 14 16 17 18 19 20 16 9 4 4 5 9 14 15 15 14 15
16 20 22 22 23 24 22 19 16 15 14 16 21 24 25 25 22 23 25 23 23 23 23 24 24 23 22 24 25 25 25 23 21 21 21 20 18 17 17 17 17 18 19 18 17 16 15 15 17 18 18 20 20 15 10 6 5 11 15 16 18 16 14
16 20 22 21 22 23 20 19 18 15 15 17 21 23 25 24 22 24 26 25 24 22 23 25 24 22 24 25 25 26 25 23 21 21 20 19 17 16 15 16 17 17 18 17 16 16 16 15 16 17 18 20 21 19 16 10 3 8 16 17 19 19 15
18 22 24 21 21 21 20 19 19 19 19 20 21 22 23 23 23 23 24 24 23 22 23 25 24 24 25 24 24 27 26 22 21 20 19 18 17 15 15 15 16 16 16 16 15 15 16 15 15 17 17 19 21 19 17 12 4 4 12 16 16 17 17
17 22 25 23 21 20 19 20 21 22 22 21 20 20 21 23 22 22 22 22 21 21 23 25 24 25 25 22 23 27 26 23 21 20 18 18 17 15 15 15 16 16 16 16 15 15 15 15 15 16 17 18 21 20 17 14 8 4 8 12 13 15 17
20 21 22 23 22 21 21 22 23 23 22 22 20 20 21 22 21 20 21 21 21 21 23 25 26 27 24 20 22 26 24 20 19 18 18 18 17 16 15 15 16 16 16 15 15 15 14 14 14 16 17 18 20 22 20 16 12 8 8 11 13 14 16
19 21 22 22 22 22 22 23 23 23 23 23 22 21 22 22 21 21 21 22 24 23 23 24 26 25 23 20 22 24 20 17 17 17 18 18 17 16 16 15 15 15 15 16 15 15 14 14 15 16 17 18 20 22 22 20 17 13 10 10 12 14 15
15 19 21 21 21 22 23 24 24 24 24 25 24 22 22 22 21 22 23 24 25 25 23 22 23 23 21 20 22 23 19 17 17 17 17 17 17 16 16 15 15 15 15 16 16 16 15 15 15 16 16 18 20 21 22 23 20 16 12 11 11 13 15
16 16 17 17 19 21 23 24 23 24 25 26 25 23 23 23 22 23 25 26 26 25 22 22 22 20 19 20 23 22 18 17 17 17 17 16 16 16 15 15 15 14 15 16 16 16 16 16 15 16 16 17 19 21 23 23 21 18 15 13 12 12 13
19 18 17 16 17 19 21 23 24 26 27 27 26 25 26 26 24 25 26 26 26 24 22 22 22 19 18 22 22 19 17 17 17 17 16 15 15 15 15 14 14 14 14 15 16 16 16 17 16 16 17 17 18 20 22 22 21 20 18 16 13 12 13
20 19 18 17 17 18 20 23 26 28 28 27 27 27 28 27 27 27 27 26 25 23 22 22 20 18 21 23 21 18 18 17 16 16 16 14 13 13 14 13 13 13 14 14 16 17 17 17 17 17 17 17 17 19 22 22 21 20 19 16 14 12 13
20 19 18 18 18 19 20 23 26 28 28 28 28 28 28 28 28 28 27 26 24 23 22 21 19 20 23 22 19 18 18 17 16 16 15 13 12 12 13 13 13 12 12 13 15 17 17 17 17 16 16 16 17 19 22 22 21 19 19 16 14 13 13
20 20 20 19 19 20 21 23 25 27 29 30 30 28 27 28 28 27 26 25 25 23 21 19 19 22 22 19 19 19 17 16 15 15 15 14 13 13 13 13 12 11 11 12 13 14 14 14 14 14 15 16 17 19 21 21 20 19 17 14 12 11 12
19 19 20 20 19 20 22 24 25 27 29 31 30 29 29 30 29 28 27 26 25 23 21 21 21 21 19 18 18 18 16 15 15 14 14 14 13 13 12 12 11 10 9 9 10 10 10 9 9 10 12 14 17 18 20 21 21 19 18 16 14 13 13
18 17 19 20 20 20 22 24 25 26 29 30 29 29 31 32 29 28 28 26 25 23 22 21 21 19 18 18 18 17 16 15 15 15 15 15 13 12 12 11 9 8 7 7 7 7 8 8 8 9 10 12 15 15 17 21 22 20 19 17 14 14 16
17 15 17 19 20 20 21 23 24 25 27 28 27 27 29 30 29 28 27 25 24 23 22 20 19 18 17 18 18 16 15 15 16 16 16 14 14 13 12 10 9 7 7 7 8 8 9 9 9 10 11 13 13 12 14 18 21 20 18 15 13 15 17
17 11 11 15 16 16 17 18 20 23 26 26 25 26 27 28 28 26 25 25 24 23 21 20 19 18 18 18 18 17 16 16 17 16 15 15 15 14 13 10 9 8 7 7 8 9 10 11 11 11 11 11 11 10 11 16 18 17 16 15 15 16 16
18 11 5 7 9 9 10 12 14 17 21 23 23 23 24 24 25 25 25 26 25 23 21 21 20 19 18 17 17 17 17 18 17 16 15 16 15 14 12 10 9 8 8 8 9 11 12 13 13 12 10 9 8 7 8 10 12 12 13 12 12 12 10
20 15 9 4 3 4 6 8 11 14 17 19 21 20 20 21 22 25 26 26 25 24 23 23 22 20 19 18 17 17 18 18 18 17 16 15 14 13 12 11 10 10 10 10 10 12 14 15 15 16 16 16 16 15 14 11 9 8 8 9 9 9 10
21 19 15 13 12 11 10 10 12 16 18 19 19 18 18 18 18 21 25 25 25 26 24 23 22 21 19 19 18 17 18 19 18 18 16 15 14 13 12 11 12 12 12 13 14 15 16 18 20 21 22 21 19 18 18 17 15 14 14 15 15 14 13
22 21 19 17 17 15 14 14 14 18 20 20 19 18 17 17 16 18 22 24 24 25 24 21 20 20 19 19 18 18 19 18 18 18 17 16 15 14 13 12 13 14 15 16 17 17 18 19 20 21 20 18 16 16 18 18 16 15 16 15 15 14 13
23 23 22 20 19 17 17 17 17 21 24 24 22 21 19 18 17 17 19 21 22 24 24 20 18 18 17 16 16 18 19 19 19 19 19 18 17 16 15 13 13 16 18 18 18 18 16 15 14 14 14 15 16 17 18 16 15 16 15 14 15 14 13
24 24 24 22 21 19 19 18 19 23 26 26 25 24 22 21 20 18 17 18 19 21 22 20 18 17 17 16 15 17 19 20 21 22 21 21 20 19 18 17 16 17 19 19 19 18 15 12 12 12 13 15 17 19 18 16 16 17 16 15 15 14 13
24 23 22 21 21 21 20 19 21 23 24 25 26 26 23 22 21 19 17 17 17 18 18 18 17 17 17 17 16 17 19 20 23 24 24 23 23 22 21 20 19 18 18 18 17 16 14 13 13 14 14 14 17 19 19 18 18 17 17 17 16 15 14
23 22 20 19 19 22 23 22 21 22 22 23 25 25 24 23 22 21 19 17 17 16 16 16 16 16 17 18 19 19 20 21 24 26 25 24 24 23 21 20 19 17 17 17 16 15 15 14 13 13 13 13 16 18 19 19 19 18 17 18 17 16 15
22 21 20 19 19 20 22 23 23 23 23 23 25 25 24 24 24 24 22 20 18 16 15 15 15 15 15 17 18 19 21 24 25 26 26 25 24 23 22 20 19 17 16 16 16 15 15 14 13 14 14 15 17 19 20 20 19 18 18 17 16 16 14
22 21 21 21 21 21 21 22 24 25 25 26 26 26 25 25 25 25 24 23 22 20 18 16 15 15 15 15 17 19 21 23 23 24 26 26 25 24 23 21 20 18 16 17 17 17 17 16 16 18 19 20 20 20 20 20 18 17 16 15 14 14 14
23 22 22 22 22 23 23 25 25 25 25 27 28 27 25 24 25 24 23 23 23 22 21 20 18 17 16 15 17 18 19 20 20 21 24 26 26 26 25 24 22 20 19 19 19 19 19 20 21 22 22 22 21 20 19 18 16 15 15 14 14 14 14

ECMWFFLT1_925_spd_075.txt.gz
Wind_Speed
13 14 14 14 14 16 21 23 22 21 19 18 18 15 13 14 16 17 19 21 22 22 21 21 22 23 23 20 19 21 18 16 16 14 15 17 16 15 15 12 7 5 8 7 5 6 5 5 7 7 7 8 9 10 10 9 9 8 6 5 4 6 7
11 12 12 13 14 16 18 17 15 16 17 18 19 18 17 19 22 23 22 23 23 21 20 21 22 22 22 19 22 24 19 16 16 15 15 17 17 16 16 14 8 7 9 6 5 7 5 4 6 7 8 8 9 10 11 9 9 8 7 6 6 7 7
11 12 12 11 12 14 15 12 10 14 18 17 17 19 20 21 22 24 24 25 26 24 21 20 20 20 21 21 24 24 19 17 16 15 15 16 16 15 16 16 13 11 10 8 8 8 6 5 5 6 10 11 9 9 10 10 9 8 8 7 7 8 8
10 12 11 8 9 12 12 12 10 13 18 16 15 17 21 21 21 22 25 26 26 26 23 21 20 18 17 21 24 23 19 18 16 15 16 15 14 15 16 17 17 15 13 10 11 11 9 7 5 6 10 12 11 10 9 10 10 8 8 8 8 9 8
9 11 11 9 11 13 13 14 12 12 15 16 15 17 20 21 20 21 23 23 24 25 24 21 20 16 14 17 20 20 18 18 16 14 16 16 15 14 15 17 17 17 15 11 10 11 9 8 7 6 8 11 10 9 9 9 9 9 8 8 9 9 8
10 12 13 13 14 13 13 13 11 11 12 13 17 18 19 22 23 22 22 20 20 23 23 22 19 15 13 14 15 18 18 17 15 14 15 16 16 15 15 16 17 17 16 12 10 10 9 8 7 6 8 10 9 9 10 9 9 9 8 9 9 9 10
10 13 15 15 13 11 11 12 12 12 12 14 17 19 20 23 25 24 23 23 22 21 22 25 22 18 17 17 16 18 18 17 17 17 16 16 16 16 15 15 17 17 17 16 13 11 10 9 8 8 9 9 8 9 9 10 10 9 8 9 10 9 11
11 13 14 15 14 12 12 13 15 15 14 14 16 19 21 22 23 24 24 24 24 23 24 26 24 22 21 21 19 18 17 18 20 19 17 17 18 18 17 15 16 17 19 19 16 12 11 10 10 11 11 9 7 7 8 9 10 11 10 9 10 10 10
12 13 13 14 14 13 12 13 14 13 12 14 16 18 20 21 22 23 23 24 24 25 26 25 24 23 23 21 19 17 17 19 20 20 18 17 19 20 18 16 15 17 20 21 17 14 13 11 10 11 13 11 7 6 7 7 8 11 12 11 11 11 12
13 14 14 13 12 12 11 12 13 13 12 14 15 15 17 19 20 20 20 22 24 25 24 23 23 22 22 21 19 19 21 20 16 17 18 17 19 21 18 16 15 16 19 20 18 16 14 12 11 12 13 12 9 7 6 6 8 11 14 14 12 13 15
14 15 14 13 12 11 10 11 14 15 14 12 13 15 16 16 16 17 18 19 22 23 20 20 22 21 19 19 19 20 21 20 16 16 18 16 18 21 19 16 15 14 17 20 19 18 16 14 13 12 12 12 11 9 7 6 7 10 13 14 12 12 15
13 14 13 13 13 13 11 10 12 15 14 11 13 19 18 16 15 14 15 17 21 21 19 19 22 22 18 16 16 17 17 18 19 19 18 18 20 24 21 16 15 14 14 17 19 19 17 15 14 13 12 12 11 11 10 7 6 8 11 13 12 13 15
11 12 12 13 14 14 12 10 12 16 15 12 15 19 19 16 15 13 13 16 20 21 20 20 21 20 18 15 15 16 16 17 19 18 17 17 20 23 19 16 16 14 13 15 17 18 18 16 15 13 12 12 12 11 11 9 7 6 9 11 11 13 16
12 11 13 14 15 14 14 14 14 14 14 14 17 21 20 17 14 13 13 14 17 19 19 20 20 19 16 15 15 15 16 16 17 18 17 15 16 19 18 16 16 14 14 15 15 17 18 17 16 15 13 12 13 13 13 12 9 5 8 11 9 11 17
16 14 14 14 14 15 15 15 14 11 10 13 16 19 19 17 15 13 13 14 15 16 17 18 19 19 17 16 15 15 17 17 16 18 19 16 16 18 18 17 16 14 14 15 15 16 17 17 16 15 14 14 13 14 15 13 11 7 7 10 10 11 16
17 16 15 14 14 15 15 15 13 11 11 13 14 15 16 16 15 14 13 13 14 15 16 16 17 18 18 17 17 18 19 18 16 19 21 19 19 20 18 17 17 15 14 15 15 15 15 17 17 14 14 15 13 14 15 14 12 10 8 9 11 11 15
17 16 15 14 14 15 16 16 14 13 14 15 14 14 14 15 16 16 15 14 15 14 15 16 16 18 17 16 17 18 19 18 17 19 21 18 18 20 18 17 17 15 15 15 16 14 13 16 18 17 16 15 14 13 16 16 13 11 9 9 10 10 13
19 18 17 15 14 15 16 16 16 15 15 17 16 15 16 16 16 16 16 15 16 15 15 16 16 17 16 15 16 17 18 18 15 18 20 18 18 20 18 17 17 16 15 16 17 15 13 14 17 18 17 15 14 14 15 17 15 12 11 9 10 10 11
20 20 19 17 15 15 15 16 16 15 15 16 17 17 17 17 16 16 16 16 16 16 16 15 15 16 16 15 16 18 19 18 16 18 20 18 19 19 17 17 17 16 16 17 17 15 14 14 16 17 18 16 14 13 14 16 14 12 11 8 8 10 11
21 21 19 18 16 16 16 16 15 15 16 16 16 17 17 16 16 17 17 17 17 16 16 15 15 15 15 16 18 19 18 17 16 19 19 18 19 19 17 18 19 17 15 15 16 15 14 15 14 14 16 16 15 14 14 14 12 11 11 9 7 8 10
22 21 20 18 17 17 17 17 16 15 16 17 18 18 18 17 16 17 18 17 17 16 16 15 16 16 15 15 16 18 18 16 15 16 17 18 21 20 17 18 18 16 15 15 15 14 14 15 14 12 13 14 14 14 13 12 10 11 14 14 11 9 8
21 22 21 19 18 17 17 17 17 16 16 17 18 19 20 19 17 18 18 18 17 16 15 16 17 18 17 16 16 18 20 18 14 12 13 17 21 19 16 15 15 14 13 13 13 13 13 15 14 13 14 15 14 13 12 12 11 12 15 14 10 9 8
22 23 22 20 19 17 16 16 16 17 16 16 18 19 21 21 19 17 17 18 18 17 18 20 22 22 21 19 19 18 19 18 16 13 13 16 18 16 14 14 14 13 11 11 11 11 11 12 12 14 14 16 16 14 12 13 13 13 14 12 12 11 10
22 22 21 20 19 17 17 16 17 18 18 18 19 20 22 23 22 20 19 19 21 23 24 25 24 23 21 20 18 17 16 17 18 17 16 17 15 14 15 14 13 12 11 10 10 10 10 9 11 13 13 14 17 17 15 14 13 13 13 13 14 15 12
22 22 22 21 19 17 17 17 17 19 19 19 21 23 24 25 25 25 24 23 25 28 28 26 24 22 21 19 16 15 15 16 17 17 17 17 16 15 15 14 13 12 11 10 11 11 12 11 12 13 13 14 16 18 17 16 14 13 13 13 15 15 13
22 21 22 21 19 17 16 15 15 15 15 16 19 22 25 26 25 26 27 27 27 28 28 26 23 21 20 19 16 16 16 18 18 18 19 19 18 15 15 14 13 12 10 11 11 12 13 14 13 13 13 12 13 14 15 15 14 14 14 14 15 16 15
21 20 21 20 19 18 17 16 14 13 10 8 10 13 16 19 20 21 23 24 25 27 27 25 22 21 21 20 18 18 18 19 19 20 20 19 17 15 15 14 13 12 11 11 12 13 14 15 14 12 11 10 11 11 12 13 13 13 13 14 15 15 14
20 19 18 18 18 18 17 16 14 12 10 6 2 2 5 7 11 14 15 17 18 21 23 23 23 22 21 20 19 18 18 18 19 19 19 18 17 17 16 13 11 11 11 11 12 13 15 16 14 12 12 11 10 10 10 11 12 13 13 13 14 14 12
19 17 17 17 17 17 17 16 15 13 11 10 8 6 6 6 6 8 10 12 12 12 15 19 22 22 20 19 19 18 18 19 20 20 20 19 18 17 15 13 11 11 11 11 12 12 14 16 16 15 16 15 13 12 10 7 8 11 12 12 12 11 10
20 18 17 17 17 17 17 16 16 16 15 15 15 15 14 14 13 13 12 11 10 9 10 13 18 20 19 18 18 19 20 21 21 22 22 21 19 17 15 14 13 12 12 12 12 13 15 16 18 20 22 21 18 17 19 18 14 13 14 14 15 15 13
19 19 17 17 17 17 17 17 17 19 20 19 18 18 20 22 21 20 20 17 14 13 12 13 16 18 18 16 17 19 22 23 23 23 23 21 19 18 16 15 14 14 14 14 15 16 16 18 22 25 26 25 22 20 20 21 22 20 19 18 17 16 14
18 18 18 16 16 16 17 17 18 21 24 23 21 21 25 27 26 25 25 21 17 16 16 15 15 16 17 17 18 20 22 23 23 23 22 20 19 18 17 17 16 16 16 17 19 20 19 20 22 22 20 20 23 22 20 21 22 21 20 19 18 17 15
17 18 18 16 15 17 20 21 22 24 25 26 25 26 29 30 29 28 27 23 20 19 17 15 14 14 14 17 19 20 21 23 23 22 21 20 19 18 18 18 18 18 19 20 22 23 21 18 16 14 14 17 22 23 22 21 21 20 20 20 19 18 17
20 19 17 16 16 17 19 22 24 26 27 28 29 29 29 30 31 31 29 25 23 21 19 15 12 10 10 14 18 19 20 21 23 23 22 21 20 19 18 19 20 21 22 23 23 21 18 15 12 13 15 17 20 22 23 23 22 21 22 21 20 18 17
23 22 19 17 18 19 20 22 25 27 29 31 30 30 30 31 33 34 32 28 25 23 20 16 12 8 6 10 15 17 19 21 23 24 24 23 22 20 19 18 19 20 21 22 20 17 15 14 15 16 17 18 20 23 24 24 23 21 20 19 18 16 15
23 26 25 22 20 21 22 23 25 27 29 30 31 30 31 33 34 35 33 31 28 25 22 18 14 10 6 7 11 14 17 19 21 23 25 25 23 22 21 20 18 17 17 18 17 16 15 16 17 19 20 21 23 24 23 23 22 20 19 17 16 15 13
23 26 28 26 21 20 20 21 22 24 25 29 31 29 28 29 31 31 31 31 30 28 25 23 19 14 10 9 11 14 16 18 19 21 23 24 23 22 22 21 19 17 16 17 17 17 16 17 18 21 23 24 24 23 22 21 20 18 17 15 14 13 12

ECMWFFLT1_925_spd_078.txt.gz
Wind_Speed
6 5 6 7 9 9 7 6 6 7 7 8 8 10 12 14 14 15 15 15 14 13 14 16 18 19 20 20 19 19 20 20 19 18 15 14 15 15 15 14 10 7 5 6 6 4 4 5 8 10 10 11 12 13 13 11 11 9 8 7 6 6 8
5 5 7 7 7 6 5 5 6 6 6 8 9 9 10 11 15 17 17 16 14 13 13 14 17 19 20 21 21 20 19 18 19 20 18 15 15 14 14 14 12 10 9 9 7 7 6 5 6 8 10 12 12 13 13 12 11 10 10 9 8 7 8
6 7 8 8 7 6 6 6 6 6 7 10 12 11 10 10 15 19 19 19 18 16 13 12 15 17 19 21 21 20 20 18 18 20 20 18 17 15 13 13 12 11 11 10 9 9 7 6 6 7 11 13 11 12 14 14 13 12 11 10 9 9 9
7 9 9 9 8 7 6 7 7 7 8 11 12 11 11 12 15 19 21 22 20 18 15 14 16 18 20 22 21 20 21 21 21 20 19 18 17 15 14 13 12 12 12 11 10 10 8 7 6 6 10 12 12 13 15 15 14 13 12 12 11 10 10
7 9 9 9 8 7 7 8 8 8 8 10 11 11 12 12 13 17 20 22 22 19 17 16 16 17 20 21 21 20 18 20 22 21 18 18 16 14 14 13 12 13 13 11 9 9 9 8 7 6 9 11 10 11 15 15 14 14 13 13 12 11 11
9 10 10 9 9 8 9 10 10 9 9 9 10 11 13 15 15 16 18 21 23 20 16 16 17 18 20 20 20 19 19 19 20 21 20 18 15 14 13 13 13 13 13 12 11 9 10 9 9 8 8 11 9 9 12 14 14 14 14 13 12 12 11
10 11 10 9 10 10 10 12 12 11 10 9 10 11 12 14 17 17 16 18 20 18 15 15 18 20 20 20 21 20 19 18 18 21 22 17 15 15 13 14 15 15 14 14 14 12 11 11 10 9 8 9 9 9 10 11 13 13 12 13 13 12 12
11 12 11 9 10 11 11 12 12 11 12 11 11 11 11 12 14 16 16 17 17 16 15 15 17 20 20 22 23 21 19 18 18 20 21 18 16 16 16 16 16 15 15 15 14 13 13 12 11 11 10 8 7 8 8 10 12 13 13 13 13 13 12
11 12 12 10 11 12 12 12 12 12 13 13 12 12 12 12 13 14 16 17 17 16 16 16 17 20 22 22 22 21 19 19 20 21 20 18 17 17 17 18 18 17 16 16 16 14 14 12 11 11 12 11 8 7 7 8 9 11 13 13 13 13 13
11 11 12 12 12 13 13 13 14 14 13 14 14 13 13 14 13 13 14 16 17 16 17 18 17 19 22 23 23 23 21 19 19 20 19 18 18 18 17 18 20 19 18 18 16 15 14 12 11 12 13 13 11 8 6 7 7 10 14 16 14 14 15
11 10 11 12 13 14 13 13 15 15 14 15 16 14 14 14 13 12 13 14 16 17 17 18 17 18 21 23 23 22 21 21 20 19 20 19 18 18 18 18 19 19 19 18 16 15 15 13 12 13 14 14 13 10 8 7 7 10 14 16 14 14 16
11 10 9 10 12 14 14 14 15 15 15 15 16 15 14 14 13 13 13 14 15 17 18 18 17 17 19 22 22 20 20 22 21 20 20 19 17 17 18 18 18 19 20 19 17 16 16 15 15 14 14 14 13 11 10 8 6 9 13 14 14 13 16
11 10 9 9 11 13 14 14 14 16 16 16 16 15 15 15 15 14 14 14 15 17 19 20 20 18 17 18 20 20 21 22 22 20 19 17 16 17 17 17 20 21 21 21 20 18 17 17 16 15 14 14 13 11 11 9 7 8 10 11 13 12 14
12 11 11 9 10 12 13 13 14 16 17 17 16 15 14 14 15 15 15 14 15 17 18 21 23 20 17 18 20 20 19 22 22 21 19 17 17 18 17 17 20 21 21 21 20 18 18 18 17 16 15 14 14 13 11 11 9 8 8 8 11 12 14
13 13 13 11 10 12 12 13 14 14 16 16 15 14 14 13 14 16 16 15 16 16 16 20 22 20 18 19 21 21 20 21 22 20 19 19 18 18 18 17 18 21 22 22 21 19 18 18 17 17 16 15 14 14 13 13 11 10 10 9 10 11 13
15 14 14 13 12 11 12 13 13 14 15 14 14 14 14 14 15 17 16 16 18 18 17 18 19 19 20 20 21 22 21 22 22 21 20 21 20 19 18 18 18 22 23 22 21 20 18 19 18 17 17 15 14 14 14 14 13 11 12 12 12 11 13
17 16 15 14 13 13 13 13 13 14 14 13 14 15 14 13 15 17 18 18 19 19 19 20 20 20 21 21 21 21 21 22 23 23 21 21 21 20 18 18 19 22 23 21 21 20 18 18 18 17 17 15 14 14 13 14 13 12 12 13 13 11 12
18 17 16 15 15 15 15 14 13 13 13 14 15 16 16 14 14 16 18 18 19 19 20 21 21 21 21 20 21 22 21 22 24 24 22 21 21 20 19 19 21 23 23 21 22 20 18 18 18 17 16 15 15 14 13 13 13 13 12 12 12 10 11
18 18 17 16 16 15 14 14 14 13 13 14 16 17 17 16 16 16 17 18 19 19 20 21 21 22 22 21 21 21 21 23 23 22 20 19 20 20 19 19 23 25 22 20 22 20 18 19 19 17 17 16 15 14 14 14 13 13 12 12 13 11 10
19 19 18 17 16 15 14 13 14 13 13 14 15 16 17 17 17 16 17 18 19 19 19 20 20 21 21 21 21 20 20 22 22 20 19 18 19 19 18 20 24 24 21 20 23 21 19 19 18 18 17 16 16 15 15 14 14 14 12 9 11 13 12
19 19 19 18 17 16 15 15 14 13 13 13 14 15 16 17 18 16 16 18 19 19 20 21 21 21 21 21 20 20 20 20 19 19 19 18 18 18 18 20 23 23 20 21 24 22 20 20 18 17 17 16 16 16 15 15 15 14 13 11 10 12 13
20 20 20 19 18 18 18 17 15 13 12 12 13 14 16 17 18 18 17 17 18 19 21 22 23 23 22 21 20 20 21 20 18 18 19 19 17 16 17 19 21 21 19 19 21 18 16 19 18 17 17 17 17 17 16 16 14 14 15 15 14 14 14
21 21 20 20 19 19 19 18 18 17 16 15 15 15 16 17 18 18 19 19 19 20 22 22 24 25 24 23 22 20 21 20 19 19 19 19 16 15 17 18 17 18 19 17 17 15 14 18 18 16 15 16 16 17 17 16 16 15 15 15 16 18 18
22 21 21 21 20 19 19 18 18 18 17 17 18 17 16 17 17 18 20 21 20 21 23 24 24 25 25 25 23 21 21 21 20 21 20 18 16 15 17 17 13 14 17 15 14 15 15 17 19 16 14 15 16 16 15 15 16 16 16 17 19 20 19
22 22 22 22 21 20 19 18 18 18 17 16 17 16 15 16 16 16 19 22 22 23 25 26 25 26 27 28 24 20 19 19 20 21 19 16 15 15 16 18 15 13 14 12 12 15 17 18 19 17 16 16 17 17 15 13 12 13 12 12 13 14 15
22 21 22 22 22 21 20 19 19 18 17 16 15 13 13 14 15 15 16 19 21 22 23 23 23 26 28 30 27 20 17 18 19 19 17 16 15 14 14 17 16 13 13 13 12 13 16 18 18 16 16 15 14 16 17 14 12 11 9 8 5 10 12
22 21 21 21 22 22 21 20 19 18 17 16 15 14 12 12 12 12 13 14 14 15 17 18 18 21 27 31 29 22 16 16 18 18 17 17 16 15 15 16 16 15 15 16 14 12 13 15 15 13 11 9 8 10 12 12 12 13 12 9 6 9 12
22 21 21 20 21 21 21 20 19 18 16 15 15 14 12 11 10 10 10 10 11 11 15 18 19 22 27 29 27 22 18 17 18 19 18 17 16 15 16 16 16 17 17 16 15 14 13 13 12 11 10 8 8 9 10 9 9 9 10 10 7 9 14
22 21 20 20 20 21 20 20 19 17 16 15 14 14 13 13 11 9 7 5 5 7 10 14 19 23 25 25 22 21 20 19 19 21 21 19 17 15 14 15 16 17 17 15 15 16 16 14 13 13 11 9 8 10 10 10 11 10 10 12 11 11 14
20 20 20 20 20 20 20 19 18 17 16 15 14 14 14 15 14 13 10 8 5 2 2 5 11 17 20 19 17 17 18 19 20 20 20 20 20 18 16 16 16 16 16 16 16 17 18 16 15 14 13 11 10 8 7 9 11 11 12 12 11 11 11
19 20 20 19 19 19 19 18 17 16 16 15 14 14 14 15 18 17 15 14 14 12 9 6 4 8 13 14 13 11 14 17 20 19 18 18 19 19 18 17 16 15 16 16 16 18 18 16 16 16 15 15 14 12 12 15 16 14 13 13 12 12 13
19 19 19 19 18 18 18 17 16 16 16 15 14 13 14 17 20 21 20 20 21 19 17 14 10 9 10 12 12 10 11 15 20 21 20 18 16 16 17 17 16 15 15 15 16 18 18 16 15 17 17 16 17 15 14 17 20 20 18 18 18 18 17
19 19 19 19 18 18 17 16 16 17 17 17 16 14 14 16 18 21 22 23 25 25 23 19 15 11 11 9 9 9 10 14 20 21 20 19 16 14 15 15 15 15 15 17 18 19 19 16 14 16 17 16 17 17 16 16 19 20 20 21 20 19 18
18 18 19 19 19 19 18 17 17 17 16 17 17 17 16 15 16 20 21 22 26 30 27 22 19 16 12 9 8 10 11 13 16 17 18 18 16 14 14 14 16 18 19 20 20 20 20 18 15 14 13 15 19 21 20 20 21 21 20 20 18 17 16
16 16 17 18 18 18 17 18 18 17 16 16 17 18 18 17 15 17 21 24 29 32 29 25 23 19 15 12 9 11 12 13 13 15 18 18 16 15 14 15 18 20 20 21 20 20 20 20 16 11 10 14 19 23 24 24 22 19 17 16 14 13 12
17 16 17 18 18 18 17 18 18 18 17 17 17 17 18 17 16 17 22 27 30 30 30 29 26 22 19 17 15 13 12 11 11 13 17 17 15 14 15 16 16 17 19 20 20 18 16 15 12 11 12 17 20 22 23 22 19 17 15 14 13 12 11
20 19 18 19 19 19 18 17 18 18 18 18 18 18 17 17 18 20 21 24 26 28 30 31 30 27 24 21 19 16 13 11 11 13 16 16 15 15 17 17 15 14 14 15 15 14 11 11 12 15 19 21 20 19 17 16 14 14 14 13 12 11 10

ECMWFFLT1_925_spd_084.txt.gz
Wind_Speed
9 7 3 1 5 6 6 6 6 6 6 7 9 10 11 14 15 16 17 17 18 19 20 22 23 24 25 24 23 23 23 23 23 20 18 17 17 17 19 20 18 16 14 11 8 5 2 1 6 12 16 18 18 18 20 19 17 17 16 14 16 16 15
10 9 6 4 6 6 6 6 6 6 7 8 9 10 11 13 17 18 18 18 18 19 19 21 23 25 26 26 25 24 23 24 24 21 20 21 22 20 19 20 19 18 16 13 12 9 4 3 3 4 9 14 16 19 21 19 18 18 17 16 17 17 17
13 12 9 8 7 6 7 7 6 6 7 8 9 11 11 13 16 18 19 19 18 18 19 20 21 23 25 27 27 27 26 25 25 23 23 25 26 24 22 21 20 17 13 9 12 12 7 5 3 1 5 10 11 16 22 20 19 20 19 18 18 18 20
15 15 13 11 9 8 8 9 9 8 9 10 11 12 12 12 15 18 19 19 19 19 19 19 19 21 24 26 27 28 28 27 26 27 27 27 26 26 26 24 22 20 17 13 14 15 11 6 4 2 6 13 12 14 20 22 20 19 19 20 19 19 21
16 16 16 14 12 10 9 9 10 10 11 12 12 12 11 12 14 17 18 18 20 20 19 18 19 20 22 24 25 27 28 28 27 27 28 28 27 27 27 27 25 24 24 21 17 16 14 11 9 4 6 14 13 12 19 22 21 20 20 20 20 21 21
18 17 17 16 15 14 11 9 10 10 11 13 13 12 12 13 15 16 18 18 18 19 20 19 18 18 20 22 23 24 27 28 28 27 28 29 30 29 27 26 25 25 25 24 20 18 16 15 13 7 8 15 13 11 18 21 20 20 21 22 20 20 21
18 18 18 17 17 18 15 11 11 11 12 14 15 14 13 13 14 16 18 18 17 18 19 19 19 18 19 20 22 24 26 29 29 27 28 29 29 30 28 25 25 25 25 24 23 21 19 17 15 10 7 11 11 10 14 18 20 17 18 22 22 21 22
18 18 18 18 18 19 17 14 14 15 14 15 17 15 15 14 14 15 16 17 19 19 19 19 19 20 19 20 24 25 25 26 28 28 28 29 29 29 28 26 25 25 24 23 23 23 22 20 18 15 9 3 6 7 9 12 16 17 17 22 23 22 23
16 16 16 17 18 19 18 16 17 17 16 16 16 16 15 15 16 17 17 17 19 20 21 20 20 20 20 20 22 25 25 25 26 26 26 28 29 29 28 26 25 25 24 25 25 24 23 21 19 17 14 9 6 5 5 6 8 12 18 20 21 22 24
17 16 16 17 17 18 19 18 17 17 17 17 16 16 16 14 15 17 16 17 18 19 20 20 20 19 20 21 21 22 25 26 26 25 24 26 28 28 28 27 26 25 24 25 26 25 23 22 20 19 17 16 14 9 3 5 6 9 17 20 19 21 24
17 18 17 18 18 18 19 19 18 17 17 17 17 17 17 15 15 15 16 16 17 19 19 19 20 19 20 22 22 22 23 24 26 26 25 24 25 26 27 26 25 25 24 25 26 25 24 22 20 20 18 18 21 15 5 4 6 10 18 21 21 22 24
17 18 18 19 20 19 19 20 20 18 17 18 17 17 17 16 15 15 16 17 18 19 19 19 20 20 20 21 22 22 22 23 24 25 26 25 24 24 25 24 24 25 24 25 26 25 25 23 21 20 20 19 19 16 10 5 3 7 15 20 21 23 25
18 18 19 20 19 18 19 21 21 20 19 19 18 17 17 17 16 15 15 16 16 17 18 19 20 20 21 22 22 21 22 22 23 24 25 25 23 22 24 24 24 26 26 25 26 26 25 25 23 20 20 19 18 16 14 9 5 6 14 20 22 24 26
19 20 20 20 18 18 20 21 22 22 21 20 19 19 19 20 19 17 15 14 14 14 17 19 20 20 20 21 21 21 21 22 24 24 23 24 23 22 24 24 24 25 26 25 26 25 26 26 23 21 20 19 17 18 17 14 9 7 12 19 22 22 25
21 21 21 20 19 19 20 20 22 23 22 21 21 21 20 21 21 18 16 15 14 14 16 19 21 21 21 21 22 21 20 22 26 27 24 25 26 24 23 25 24 23 24 26 27 26 26 26 22 21 22 19 18 18 18 17 14 10 11 18 20 22 26
22 22 22 21 21 21 21 21 21 22 23 22 22 22 22 21 21 20 18 17 16 15 16 18 20 22 23 23 24 24 22 23 27 30 28 26 25 23 23 25 26 23 22 24 27 26 26 26 22 20 21 20 20 19 17 19 18 13 13 17 20 23 27
22 22 22 21 21 22 22 21 21 21 22 22 23 24 24 22 22 21 20 18 18 17 17 17 19 22 25 25 26 27 25 22 24 28 29 25 22 22 23 24 25 25 23 23 26 27 28 26 24 23 23 22 22 19 19 21 20 15 11 13 19 24 26
22 22 22 21 21 21 22 22 21 21 21 22 23 23 23 23 23 24 23 20 19 20 20 19 20 22 24 25 26 27 26 22 22 26 27 24 22 22 23 24 25 25 23 23 25 26 28 28 26 25 25 24 23 20 18 19 20 17 14 14 16 21 25
21 22 22 22 22 22 22 22 22 22 22 22 23 23 23 23 24 24 23 23 21 20 20 21 23 25 24 24 25 26 26 24 24 27 26 23 24 25 24 23 25 26 24 25 27 27 27 28 26 24 25 25 24 18 14 16 17 16 16 19 18 20 23
21 22 22 23 22 22 23 23 22 22 22 23 23 23 24 24 24 23 22 22 23 22 22 23 23 22 20 21 23 24 27 26 26 27 26 24 26 27 24 24 25 25 25 26 26 26 26 28 26 25 25 25 23 18 14 16 18 16 17 19 19 21 24
21 22 22 22 22 22 23 23 23 23 23 23 23 24 24 24 23 23 22 21 21 23 24 23 21 20 20 20 20 21 23 25 25 27 28 28 28 26 26 28 26 24 26 26 25 25 27 29 28 25 23 23 23 20 16 16 18 19 20 18 17 15 15
21 21 21 21 21 22 22 22 22 22 22 23 23 23 24 24 24 24 23 22 22 22 21 20 22 24 25 23 22 21 19 20 23 25 25 26 27 27 27 28 25 23 24 25 25 27 29 30 29 26 24 23 23 21 18 16 18 18 19 19 16 10 7
20 21 21 21 21 22 22 22 22 22 22 23 23 23 24 24 24 24 24 24 24 22 20 22 26 28 26 25 24 22 21 19 21 24 24 23 25 27 27 26 25 24 25 25 24 26 29 30 29 28 26 25 25 24 21 21 22 21 20 19 15 10 6
20 20 21 21 21 22 22 23 22 22 22 22 23 23 24 24 24 24 24 24 24 22 21 25 30 31 28 25 24 23 23 21 20 22 25 25 25 27 28 26 24 25 26 26 25 26 28 30 29 28 27 27 27 26 24 25 25 24 23 20 17 16 15
20 20 21 21 21 22 23 23 23 23 22 23 23 23 23 24 24 24 24 24 24 23 22 26 32 34 31 26 23 23 23 23 21 21 24 24 24 26 27 25 23 25 26 25 24 26 27 29 29 26 25 26 25 24 23 23 24 24 24 22 18 18 19
20 21 22 22 22 23 23 23 24 24 23 23 23 23 24 24 24 24 25 25 25 24 23 27 34 36 33 29 24 23 22 23 23 21 22 24 24 24 25 25 23 24 26 23 22 24 26 26 25 23 22 23 22 20 19 19 21 23 25 24 22 21 23
21 21 22 23 23 23 24 24 24 24 24 23 24 24 24 25 24 25 26 25 27 26 24 31 38 37 33 31 28 24 21 21 23 23 22 24 25 25 25 24 21 22 25 23 22 24 25 25 23 21 20 19 17 16 16 17 18 19 21 23 23 21 23
21 21 22 23 23 23 24 24 24 25 24 23 24 24 24 24 24 25 26 26 29 28 27 34 41 37 33 32 30 28 21 17 20 22 21 22 24 25 25 24 23 23 23 23 24 25 26 26 26 22 19 16 16 15 15 17 17 17 17 18 19 18 18
22 22 22 23 23 23 24 23 24 25 23 23 24 24 23 24 23 25 26 26 29 29 28 37 43 38 33 32 30 29 22 16 16 18 19 22 24 25 24 23 23 24 23 22 24 25 27 28 26 23 20 18 17 16 16 16 17 17 18 18 16 13 11
22 23 23 23 23 23 23 23 23 24 23 22 24 24 24 23 23 25 26 27 29 28 28 37 44 40 34 31 28 27 23 15 12 10 11 14 16 19 21 22 23 24 24 23 22 23 25 27 24 23 23 22 19 17 16 15 15 16 18 18 16 13 12
22 23 23 23 24 25 24 23 23 24 22 21 23 24 24 23 23 26 27 27 29 29 29 36 43 41 36 31 27 25 23 18 14 11 7 2 3 7 13 19 22 23 24 22 21 22 23 22 22 23 24 24 22 19 16 15 16 16 16 15 14 14 15
21 22 23 23 24 25 25 24 24 24 23 22 22 22 23 23 24 27 28 27 29 31 32 36 43 43 38 33 28 25 24 23 21 20 17 12 9 6 8 14 19 22 21 19 20 22 20 19 20 21 23 22 21 19 17 16 18 19 18 17 16 16 16
20 21 22 23 23 24 24 23 24 24 23 22 22 22 22 22 23 26 29 29 30 32 33 37 42 43 40 36 31 26 24 23 21 20 21 20 17 14 14 16 16 18 19 18 18 18 17 17 19 20 20 20 20 20 19 19 20 21 21 21 19 18 17
21 21 22 22 22 24 24 24 24 24 24 23 23 23 23 21 21 24 27 29 31 34 34 37 41 42 41 39 34 29 27 24 20 20 22 23 23 24 24 25 22 20 22 19 14 15 18 19 19 19 18 19 21 22 22 21 21 21 21 21 20 18 18
21 21 21 22 22 24 25 24 24 24 24 23 23 23 23 22 21 22 25 27 30 34 36 37 38 40 40 39 37 34 31 27 24 24 26 28 28 28 29 30 28 24 24 22 18 19 22 21 20 20 20 21 23 24 24 24 23 22 21 22 21 20 19
20 21 22 22 22 23 24 24 23 23 23 23 23 22 23 23 21 20 23 26 28 32 37 38 37 38 39 38 35 34 33 31 29 28 30 31 29 27 29 32 32 29 27 26 25 25 24 24 24 24 23 24 25 25 25 25 24 24 24 24 24 23 22
18 20 21 21 20 21 22 23 22 22 23 22 21 21 22 22 21 19 20 23 27 30 35 38 38 37 38 37 35 33 31 30 30 31 32 32 30 28 30 32 31 30 31 31 30 30 29 28 27 26 24 23 23 23 25 26 26 26 26 25 25 24 23